Weather History for KRDU - August, 2013

Change the Weather History Date:

Saturday, August 31, 2013

  Actual Average Record
Temperature  
Mean Temperature 79 °F 76 °F  
Max Temperature 90 °F 86 °F 103 °F (1932)
Min Temperature 68 °F 67 °F 49 °F (1976)
Degree Days  
Heating Degree Days 0 0  
Month to date heating degree days 0 0  
Since 1 June heating degree days 0 5  
Since 1 July heating degree days 0 1  
Cooling Degree Days 14 12  
Month to date cooling degree days 351 419  
Year to date cooling degree days 1306 1441  
Since 1 June cooling degree days 1128 1232  
Growing Degree Days 28 (Base 50)    
Moisture  
Dew Point 68 °F    
Average Humidity 74    
Maximum Humidity 97    
Minimum Humidity 51    
Precipitation  
Precipitation 0.00 in 0.14 in 3.52 in (1952)
Month to date precipitation 4.88 4.26  
Year to date precipitation 37.47 29.54  
Sea Level Pressure  
Sea Level Pressure 29.94 in    
Wind  
Wind Speed 6 mph (SW)    
Max Wind Speed 15 mph    
Max Gust Speed 20 mph    
Visibility 8 miles    
Events      
T = Trace of Precipitation, MM = Missing Value Source: NWS Daily Summary

Daily Weather History Graph

Daily Weather History Graph

Search for Another Location

Airport or City:

Trip Planner

Search our weather history database for the weather conditions in past years. The results will help you decide how hot, cold, wet, or windy it might be!

Date:

Astronomy

Aug. 31, 2013 Rise Set
Actual Time 6:46 AM EDT 7:43 PM EDT
Civil Twilight 6:20 AM EDT 8:09 PM EDT
Nautical Twilight 5:49 AM EDT 8:40 PM EDT
Astronomical Twilight 5:17 AM EDT 9:12 PM EDT
Moon 2:19 AM EDT (8/31) 4:35 PM EDT (8/31)
Length of Visible Light 13h 49m
Length of Day
12h 57m
Waning Crescent, 21% of the Moon is Illuminated
Aug 31
Waning Crescent
Sep 5
New
Sep 12
First Quarter
Sep 19
Full
Sep 26
Last Quarter

Hourly Weather History & Observations

Time (EDT) Temp. Heat Index Dew Point Humidity Pressure Visibility Wind Dir Wind Speed Gust Speed Precip Events Conditions
12:51 AM 71.1 °F - 64.9 °F 81% 29.96 in 10.0 mi Calm Calm - N/A   Partly Cloudy
1:51 AM 70.0 °F - 66.0 °F 87% 29.96 in 10.0 mi WSW 3.5 mph - N/A   Clear
2:51 AM 70.0 °F - 64.9 °F 84% 29.96 in 10.0 mi SW 3.5 mph - N/A   Partly Cloudy
3:51 AM 70.0 °F - 66.0 °F 87% 29.95 in 10.0 mi South 3.5 mph - N/A   Partly Cloudy
4:51 AM 69.1 °F - 66.0 °F 90% 29.96 in 9.0 mi Calm Calm - N/A   Partly Cloudy
5:51 AM 68.0 °F - 66.0 °F 93% 29.95 in 9.0 mi South 4.6 mph - N/A   Partly Cloudy
6:43 AM 69.8 °F - 66.2 °F 88% 29.97 in 8.0 mi South 3.5 mph - N/A   Partly Cloudy
6:51 AM 70.0 °F - 68.0 °F 93% 29.96 in 8.0 mi South 3.5 mph - N/A   Scattered Clouds
7:34 AM 69.8 °F - 68.0 °F 94% 29.98 in 7.0 mi SW 4.6 mph - N/A   Mostly Cloudy
7:51 AM 71.1 °F - 69.1 °F 93% 29.96 in 2.0 mi SW 8.1 mph - N/A   Mostly Cloudy
8:01 AM 71.6 °F - 69.8 °F 94% 29.98 in 0.8 mi SW 8.1 mph - N/A   Mostly Cloudy
8:43 AM 73.4 °F - 71.6 °F 94% 29.98 in 2.0 mi SW 10.4 mph - N/A   Mostly Cloudy
8:51 AM 73.0 °F - 71.1 °F 93% 29.96 in 2.0 mi SW 8.1 mph - N/A   Mostly Cloudy
8:55 AM 73.4 °F - 71.6 °F 94% 29.98 in 7.0 mi SW 9.2 mph - N/A   Mostly Cloudy
9:03 AM 73.4 °F - 71.6 °F 94% 29.98 in 9.0 mi WSW 8.1 mph - N/A   Scattered Clouds
9:51 AM 77.0 °F - 71.1 °F 82% 29.97 in 10.0 mi SW 9.2 mph - N/A   Scattered Clouds
10:51 AM 81.0 °F 84.4 °F 70.0 °F 69% 29.99 in 10.0 mi SW 10.4 mph - N/A   Scattered Clouds
11:51 AM 82.9 °F 87.0 °F 70.0 °F 65% 29.97 in 10.0 mi SW 10.4 mph - N/A   Scattered Clouds
12:51 PM 84.0 °F 87.8 °F 69.1 °F 61% 29.95 in 10.0 mi SW 5.8 mph 17.3 mph N/A   Scattered Clouds
1:51 PM 88.0 °F 92.1 °F 69.1 °F 53% 29.93 in 10.0 mi South 9.2 mph 19.6 mph N/A   Scattered Clouds
2:51 PM 89.1 °F 93.7 °F 69.1 °F 52% 29.91 in 10.0 mi SW 9.2 mph - N/A   Scattered Clouds
3:51 PM 88.0 °F 91.4 °F 68.0 °F 51% 29.88 in 10.0 mi SW 5.8 mph 17.3 mph N/A   Scattered Clouds
4:51 PM 88.0 °F 91.4 °F 68.0 °F 51% 29.87 in 10.0 mi SW 12.7 mph 18.4 mph N/A   Scattered Clouds
5:51 PM 86.0 °F 88.8 °F 66.9 °F 53% 29.88 in 10.0 mi SW 11.5 mph - N/A   Scattered Clouds
6:51 PM 84.9 °F 87.6 °F 66.9 °F 55% 29.88 in 10.0 mi SSW 10.4 mph - N/A   Mostly Cloudy
7:51 PM 82.0 °F 84.9 °F 68.0 °F 62% 29.88 in 10.0 mi SSE 4.6 mph - N/A   Mostly Cloudy
8:51 PM 80.1 °F 83.2 °F 70.0 °F 71% 29.90 in 10.0 mi Calm Calm - N/A   Mostly Cloudy
9:51 PM 79.0 °F - 69.1 °F 72% 29.91 in 10.0 mi Calm Calm - N/A   Mostly Cloudy
10:51 PM 77.0 °F - 70.0 °F 79% 29.91 in 10.0 mi SW 5.8 mph - N/A   Mostly Cloudy
11:51 PM 77.0 °F - 70.0 °F 79% 29.90 in 10.0 mi Calm Calm - N/A   Mostly Cloudy